Location: Chiroubles
(46.1812°N, 4.6660°E)
Time: 06:10:27
(UTC+00:00)

Transit 2A - Visible Passes

Search period start: 27 November 2020 00:00
Search period end: 07 December 2020 00:00
Orbit: 595 x 964 km, 66.7° (Epoch: 26 November)

Date Brightness Start Highest point End Pass type
(mag) Time Alt. Az. Time Alt. Az. Time Alt. Az.
27 Nov 7.1 16:33:43 10° S 16:39:22 35° ESE 16:44:48 10° NE visible
27 Nov 7.1 18:16:21 10° SW 18:22:29 51° NW 18:25:55 24° NNE visible
27 Nov 8.7 20:03:24 10° WNW 20:06:26 16° NW 20:06:26 16° NW visible
28 Nov 6.7 17:41:56 10° SW 17:48:14 68° NW 17:52:56 17° NNE visible
28 Nov 8.3 19:28:11 10° WNW 19:32:31 19° NNW 19:33:26 19° NNW visible
29 Nov 6.4 17:07:40 10° SSW 17:14:01 88° WNW 17:19:54 11° NNE visible
29 Nov 8.1 18:53:07 10° W 18:58:01 24° NW 19:00:24 19° N visible
30 Nov 6.5 16:33:35 10° SSW 16:39:52 70° ESE 16:45:50 10° NE visible
30 Nov 7.9 18:18:12 10° WSW 18:23:35 30° NW 18:27:19 16° N visible
30 Nov 9.0 20:07:08 10° NW 20:07:48 11° NNW 20:07:48 11° NNW visible
01 Dec 7.6 17:43:26 10° WSW 17:49:13 37° NW 17:54:11 12° NNE visible
01 Dec 8.7 19:31:28 10° NW 19:34:07 13° NNW 19:34:41 13° NNW visible
02 Dec 7.2 17:08:49 10° SW 17:14:53 48° NW 17:20:36 10° NNE visible
02 Dec 8.5 18:56:03 10° WNW 18:59:30 15° NNW 19:01:31 13° N visible
03 Dec 6.8 16:34:22 10° SW 16:40:37 64° NW 16:46:30 10° NNE visible
03 Dec 8.4 18:20:48 10° WNW 18:24:57 18° NNW 18:28:19 12° N visible
04 Dec 8.2 17:45:42 10° W 17:50:26 23° NW 17:54:56 10° NNE visible
05 Dec 7.9 17:10:45 10° W 17:16:00 28° NW 17:20:57 10° NNE visible
05 Dec 8.6 19:00:03 10° NNW 19:01:13 11° NNW 19:02:21 10° N visible
06 Dec 7.6 16:35:57 10° WSW 16:41:36 35° NW 16:46:56 10° NNE visible
06 Dec 8.5 18:24:13 10° NW 18:26:33 12° NNW 18:28:49 10° N visible
